This is the latest recevied weather packets stored in our database for station/object WA0GMH-1. If no packets are shown the sender has not sent any weather packets the latest 1 day(s).
| Time | Temp. | Humidity | Pressure | Rain* | Wind** | Luminosity | Snow |
|---|---|---|---|---|---|---|---|
| 1778081617 | 9.44° C | 83% | 1018.1 hPa | 0 mm | - | - | - |
| 1778080411 | 8.33° C | 100% | 1018.5 hPa | 0 mm | - | - | - |
| 1778078802 | 7.78° C | 6% | 1018.4 hPa | 0 mm | - | - | - |
| 1778077193 | 6.11° C | 9% | 1018.4 hPa | 0 mm | - | - | - |
| 1778076790 | 6.11° C | 10% | 1018.4 hPa | 0 mm | - | - | - |
| 1778075584 | 5° C | 13% | 1018.3 hPa | 0 mm | - | - | - |
| 1778073975 | 3.89° C | 13% | 1018.4 hPa | 0 mm | - | - | - |
| 1778070757 | 1.67° C | 17% | 1017.6 hPa | 0 mm | - | - | - |
| 1778069148 | 0.56° C | 17% | 1017.5 hPa | 0 mm | - | - | - |
| 1778068343 | 0.56° C | 15% | 1017.3 hPa | 0 mm | - | - | - |
| 1778067539 | 0.56° C | 14% | 1016.9 hPa | 0 mm | - | - | - |
| 1778067136 | 0.56° C | 14% | 1017 hPa | 0 mm | - | - | - |
| 1778065930 | 0.56° C | 13% | 1016.8 hPa | 0 mm | - | - | - |
| 1778065126 | 0.56° C | 13% | 1016.6 hPa | 0 mm | - | - | - |
| 1778063918 | 1.11° C | 12% | 1016.5 hPa | 0 mm | - | - | - |
| 1778063114 | 1.11° C | 12% | 1016.3 hPa | 0 mm | - | - | - |
| 1778062712 | 1.11° C | 12% | 1016.3 hPa | 0 mm | - | - | - |
| 1778062309 | 1.11° C | 12% | 1016.3 hPa | 0 mm | - | - | - |
| 1778061103 | 1.11° C | 11% | 1016.2 hPa | 0 mm | - | - | - |
| 1778059896 | 1.11° C | 10% | 1015.9 hPa | 0 mm | - | - | - |
| 1778059494 | 1.11° C | 10% | 1016 hPa | 0 mm | - | - | - |
| 1778058287 | 1.11° C | 9% | 1016 hPa | 0 mm | - | - | - |
| 1778057885 | 1.67° C | 9% | 1016 hPa | 0 mm | - | - | - |
| 1778057482 | 1.67° C | 9% | 1016 hPa | 0 mm | - | - | - |
| 1778057080 | 1.67° C | 9% | 1015.9 hPa | 0 mm | - | - | - |
* Rain since midnight (hover to see other rain measurements)
** Current wind speed in m/s (hover to see current wind gust speed)